Temperature
18 18 18 18 18 18 18 18 19 19 19 19 19 19 19 19 19 19 19 19 18 18 18 18 18 18 18 18 18 18 18 18 18 18 18 18 18 18 18 18 18 18 18
18 18 18 18 18 18 18 18 18 18 19 18 18 18 18 18 18 18 18 18 18 18 18 18 18 18 18 18 18 18 18 18 18 18 18 18 18 18 18 18 18 18 18
18 18 18 18 18 18 18 18 18 18 18 18 18 18 18 18 18 18 18 18 18 18 18 18 18 18 18 18 18 18 18 18 18 18 18 18 18 18 18 18 18 18 18
18 18 18 18 18 18 18 18 18 18 18 18 18 18 18 18 18 18 18 18 18 18 18 18 18 18 18 18 18 18 18 18 18 18 18 18 18 18 18 18 18 18 18
18 18 18 18 18 18 18 18 18 18 18 18 18 18 18 18 17 17 17 17 17 17 17 17 17 17 18 18 18 18 18 18 18 18 18 18 18 18 18 18 18 18 18
18 18 18 18 18 18 18 18 18 18 18 18 17 17 17 17 17 17 17 17 17 17 17 17 17 17 17 17 18 18 18 18 18 18 18 18 18 18 18 18 18 18 18
18 18 18 18 18 18 18 18 18 18 17 17 17 17 17 17 17 16 16 16 16 17 17 17 17 17 17 17 17 17 18 17 17 17 18 17 17 17 18 18 18 18 18
18 18 18 18 18 18 18 17 17 17 17 17 17 17 16 16 16 16 16 16 16 16 16 16 16 17 17 17 17 17 17 17 17 17 17 17 17 17 17 18 18 18 18
18 18 18 18 18 18 17 17 17 17 17 17 16 16 16 16 16 16 16 16 16 16 16 16 16 16 17 17 17 17 17 17 17 17 17 17 17 17 17 17 18 18 18
18 18 18 18 18 17 17 17 17 17 17 16 16 16 16 16 16 16 16 16 16 16 16 16 16 16 16 16 17 17 17 17 17 17 17 17 17 17 17 17 18 18 18
18 18 18 18 18 17 17 17 17 17 17 16 16 16 16 16 16 16 15 15 15 15 15 15 16 16 16 16 16 16 17 17 17 17 17 17 17 17 17 17 17 18 18
18 18 18 18 18 17 17 17 17 17 16 16 16 16 16 16 16 15 15 15 15 15 15 15 16 16 16 16 16 16 16 17 17 17 17 17 17 17 17 17 17 17 17
18 18 18 18 18 17 17 17 17 17 16 16 16 16 16 16 16 15 15 15 15 15 15 15 15 15 16 16 16 16 16 16 16 16 17 17 17 17 17 17 17 17 17
18 18 18 18 18 17 17 17 17 17 17 16 16 16 16 16 15 15 15 15 15 15 15 15 15 15 15 16 16 16 16 16 16 16 16 16 17 17 17 17 17 17 17
19 18 18 18 18 18 17 17 17 17 17 16 16 16 16 16 15 15 15 15 15 15 15 15 15 15 15 15 16 16 16 16 16 16 16 16 16 17 17 17 17 17 17
19 19 18 18 18 18 17 17 17 17 16 16 16 16 15 15 15 15 15 15 15 15 15 15 15 15 15 15 15 15 16 16 16 16 16 16 16 16 16 17 17 17 17
19 19 18 18 18 18 17 17 17 17 16 16 16 16 15 15 15 15 15 15 15 15 15 15 15 15 15 15 15 15 15 16 16 16 16 16 16 16 16 16 17 17 17
19 19 18 18 18 18 17 17 17 16 16 16 16 15 15 15 15 15 14 14 14 14 15 15 15 15 15 15 15 15 15 15 15 16 16 16 16 16 16 16 16 16 17
19 19 19 18 18 18 17 17 17 16 16 16 15 15 15 15 15 14 14 14 14 14 14 14 14 15 15 15 15 15 15 15 15 15 16 15 16 16 16 16 16 16 16
19 19 19 18 18 17 17 17 16 16 16 16 15 15 15 15 15 14 14 14 14 14 14 14 14 14 15 15 15 15 15 15 15 15 15 15 15 16 16 16 16 16 16
19 19 19 18 18 17 17 17 16 16 16 15 15 15 15 15 14 14 14 14 14 14 14 14 14 14 15 15 15 15 15 15 15 15 15 15 15 15 15 16 16 16 16
19 19 19 18 18 18 17 17 16 16 16 15 15 15 15 15 14 14 14 14 14 14 14 14 14 14 14 14 14 15 15 15 15 15 15 15 15 15 15 15 15 15 16
19 19 19 18 18 18 17 17 16 16 16 15 15 15 15 15 15 14 14 14 14 14 14 14 14 14 14 14 14 14 14 14 15 15 15 15 15 15 15 15 15 15 15
19 19 19 18 18 18 17 17 16 16 16 15 15 15 15 15 15 14 14 14 14 14 14 14 14 14 14 14 14 14 14 14 14 14 15 15 15 15 15 15 15 15 15
19 19 19 18 18 18 17 17 16 16 16 16 15 15 15 15 15 14 14 14 14 14 14 14 14 14 14 14 14 14 14 14 14 14 14 15 15 15 15 15 15 15 15
19 19 19 18 18 18 17 17 16 16 16 16 15 15 15 15 15 14 14 14 14 14 14 14 14 14 14 14 14 14 14 14 14 14 14 14 14 15 15 15 15 15 15
Wind_Speed
4 6 12 12 13 13 13 12 13 13 12 12 12 12 12 12 12 11 11 10 10 10 9 9 8 8 7 7 7 7 7 7 6 6 6 5 5 5 5 5 5 4 4
7 10 13 13 13 13 13 13 12 12 12 12 11 11 11 11 11 10 10 9 9 8 8 8 8 7 6 6 6 6 6 6 6 5 5 4 4 4 5 5 5 4 5
10 11 13 13 13 13 13 12 12 12 11 11 11 11 10 10 10 9 9 8 7 7 7 6 6 6 6 5 5 5 5 6 5 5 5 3 2 4 4 5 5 5 5
11 11 12 13 13 13 13 12 12 12 11 10 10 10 9 9 9 9 8 7 7 6 6 6 6 6 5 5 5 5 5 5 5 5 4 2 1 4 4 4 5 5 5
10 11 13 14 13 13 12 11 11 11 11 10 9 9 9 9 9 8 7 6 6 5 5 5 5 5 5 5 5 5 5 5 5 5 4 1 1 4 5 5 5 5 5
10 12 14 15 14 13 12 11 11 10 10 9 9 8 8 8 7 7 6 5 5 5 4 4 4 4 5 5 5 5 5 4 5 5 3 1 2 3 4 5 6 6 5
10 11 14 14 13 12 12 11 10 9 9 8 7 7 6 6 5 5 5 4 4 4 4 4 3 4 4 4 5 5 5 4 4 3 2 1 2 4 4 5 5 5 5
11 10 12 14 13 12 11 10 9 8 7 6 5 4 4 4 3 3 2 2 2 2 2 3 3 3 4 4 5 5 5 5 4 4 3 1 3 4 4 4 5 5 5
9 8 8 10 11 11 11 10 8 7 6 5 3 2 1 1 1 0 1 1 2 2 2 3 4 5 5 5 5 5 5 4 3 3 2 1 4 4 4 4 4 5 4
7 6 6 7 8 8 8 8 7 6 5 4 3 2 2 2 2 2 3 3 3 3 3 4 5 6 6 6 6 5 5 4 3 2 2 2 4 4 4 4 4 4 4
7 5 5 5 6 6 6 7 6 5 3 3 3 3 2 2 3 3 4 5 5 4 5 5 6 7 7 6 6 5 4 2 2 2 1 2 4 4 4 4 5 4 4
7 6 5 5 5 6 6 5 4 2 1 2 2 3 2 2 2 1 3 4 5 5 6 7 8 8 7 5 6 5 2 2 2 2 2 3 4 4 4 4 4 4 4
7 7 6 5 5 5 3 3 2 2 1 1 1 1 0 1 1 1 1 3 4 5 5 6 6 6 5 4 3 3 1 1 2 2 2 4 4 3 3 3 4 4 4
7 6 6 6 4 4 3 3 3 2 1 0 1 2 2 1 1 1 1 2 3 3 4 4 3 4 4 3 2 2 1 1 2 2 3 3 3 3 3 3 4 4 5
7 6 6 5 5 4 3 2 3 2 2 1 3 3 3 2 2 1 1 2 3 3 2 2 2 3 3 3 2 1 1 1 2 2 3 4 3 3 3 4 4 5 5
7 6 5 5 4 4 3 3 2 2 3 3 4 4 5 4 3 2 2 2 3 4 3 2 2 2 2 2 2 1 1 1 1 1 2 3 3 3 3 4 4 5 6
7 7 6 6 5 5 4 3 3 3 4 4 4 6 7 6 4 2 2 3 3 4 4 3 3 3 3 3 3 2 1 1 0 1 2 2 3 3 3 3 4 5 5
8 7 6 6 6 5 5 4 3 4 5 4 5 7 7 6 5 3 2 2 3 4 3 2 2 3 3 3 3 3 2 1 1 1 1 2 2 2 2 3 4 5 5
8 8 6 6 6 6 5 4 4 4 4 4 5 5 6 6 6 4 2 2 3 3 3 3 3 2 2 3 3 3 3 2 1 0 0 1 2 2 2 2 3 5 6
7 7 7 6 6 6 5 4 4 4 3 3 3 4 5 5 5 4 2 3 3 3 3 3 2 2 1 2 2 3 3 3 2 1 0 0 0 1 2 2 2 3 4
6 7 7 6 5 5 3 3 3 2 1 2 1 2 3 3 4 3 2 3 3 2 2 2 2 3 2 2 3 4 4 4 3 2 1 1 1 1 2 2 2 2 2
6 7 6 6 5 5 3 3 2 2 1 0 1 2 1 2 2 2 2 2 2 2 3 3 2 2 2 2 2 2 3 5 4 4 3 1 1 1 1 1 2 2 3
7 7 7 7 6 5 4 3 3 3 3 3 2 2 2 1 1 1 1 1 1 1 1 2 1 1 1 2 1 3 2 1 3 4 3 3 2 1 0 0 1 2 3
7 6 7 6 5 4 5 5 4 3 1 2 2 2 3 2 1 0 1 1 1 1 1 1 1 1 1 1 2 1 2 3 1 2 4 3 3 2 1 1 1 2 3
6 6 7 6 5 4 5 5 5 3 2 1 1 1 2 2 2 1 1 1 1 1 1 1 1 1 1 1 0 0 1 1 1 2 1 3 3 3 2 1 1 1 3
5 6 6 6 4 4 4 4 4 4 2 1 1 1 2 2 2 3 2 1 1 1 1 1 0 1 1 1 1 1 1 1 1 2 2 1 2 3 2 1 1 1 3
Wind_Direction
134 135 126 119 113 109 107 105 103 100 98 97 93 90 90 91 90 87 86 83 81 76 72 70 70 69 66 64 61 59 56 53 51 50 44 47 51 60 67 70 65 64 71
142 133 125 120 116 111 107 104 103 102 99 96 93 90 89 89 88 86 85 82 80 77 72 67 64 63 62 60 55 51 46 40 45 37 33 37 47 58 73 74 69 72 67
132 128 124 121 117 113 109 106 102 100 97 94 92 89 88 88 87 85 83 80 75 72 68 64 57 53 53 50 43 39 35 30 30 24 22 24 47 73 84 79 75 74 76
130 128 126 122 118 114 110 106 102 99 96 94 93 90 88 87 84 82 79 76 72 66 64 62 53 47 43 37 31 25 22 18 17 11 14 7 74 83 88 83 83 87 88
127 126 127 123 120 116 113 109 106 103 99 95 93 91 89 86 83 79 76 74 71 67 64 58 47 41 35 28 22 14 8 7 11 6 8 25 112 100 94 85 88 92 95
128 130 131 128 124 121 117 114 110 106 101 96 94 92 90 86 81 76 71 68 69 63 57 50 37 28 25 18 8 2 357 1 8 2 7 82 131 115 104 96 92 93 93
136 137 138 133 130 127 123 119 115 111 108 103 100 97 91 85 80 77 74 67 63 54 43 35 17 3 359 356 351 349 348 349 354 354 10 163 150 127 115 109 101 92 92
142 143 143 141 138 135 131 129 127 124 120 116 110 103 97 88 80 76 72 51 40 36 22 8 350 335 329 328 330 331 330 330 347 0 353 189 159 134 123 117 111 102 99
140 140 143 146 146 145 143 143 141 141 141 142 139 132 115 113 116 37 299 305 324 331 335 330 323 320 312 311 314 318 321 324 329 320 337 181 158 139 131 122 114 109 102
138 142 148 151 152 153 158 160 160 160 163 175 196 236 269 267 262 256 256 264 285 305 315 309 307 309 309 309 307 310 311 317 319 318 302 192 159 143 136 127 121 112 103
147 151 152 157 167 173 177 181 180 183 194 221 252 267 291 299 294 273 265 267 279 299 306 303 305 310 313 314 310 309 312 315 305 302 277 187 161 150 142 133 127 122 114
156 167 172 170 177 186 195 187 193 203 222 253 266 280 289 288 288 299 284 284 294 304 308 302 304 310 317 318 316 320 315 293 277 271 249 185 166 157 150 144 143 136 128
158 160 166 171 179 183 190 170 174 177 185 254 314 292 22 9 356 344 336 330 324 319 322 316 316 314 312 306 307 307 289 259 260 262 243 187 173 161 157 152 157 148 140
145 150 156 161 167 176 159 148 152 152 152 109 20 63 88 68 42 6 357 327 332 326 322 323 318 318 321 315 300 294 274 217 233 233 231 200 183 178 169 159 168 159 143
146 148 150 147 143 142 127 134 124 136 139 111 57 53 75 81 52 39 22 11 352 343 331 323 326 333 337 343 343 7 355 258 221 216 229 217 207 198 190 181 179 173 157
152 151 144 130 132 123 118 124 126 121 107 82 69 70 76 78 73 54 26 10 359 360 356 346 335 340 332 348 346 350 9 32 160 188 211 229 229 216 203 192 185 180 169
150 143 139 139 125 113 109 109 101 94 94 83 76 71 70 75 76 70 28 4 350 1 11 19 12 14 2 2 351 346 10 9 251 223 215 224 235 236 220 198 189 178 171
148 144 147 140 123 112 103 97 98 93 91 84 79 69 67 68 69 62 30 358 355 16 19 7 14 17 5 1 343 332 341 347 331 234 213 211 216 231 231 193 185 175 168
152 146 141 131 123 113 99 90 84 80 78 86 82 72 65 59 57 62 37 352 8 21 11 4 22 31 1 350 338 337 341 342 317 327 176 201 197 200 195 188 184 180 170
146 139 133 127 118 107 92 77 59 56 56 70 78 80 74 63 56 56 39 8 19 24 9 9 8 12 356 346 2 3 350 346 353 357 286 48 184 196 174 163 164 184 179
142 139 138 134 131 118 104 100 88 72 53 45 41 81 86 70 53 57 32 8 12 17 358 1 18 22 5 12 38 8 354 360 12 7 10 28 51 107 136 149 153 153 182
150 147 142 142 143 137 133 137 139 138 129 99 359 31 59 60 32 53 49 21 8 13 10 14 36 32 358 29 81 59 10 352 351 1 3 16 29 60 83 133 147 158 170
152 157 154 153 150 143 130 103 77 57 37 20 4 336 312 322 358 42 45 32 19 39 356 347 43 85 19 359 68 124 118 263 319 338 352 5 9 21 299 128 166 179 180
165 158 147 148 146 144 131 124 125 126 154 237 247 273 301 306 291 334 1 22 20 9 328 320 74 118 112 17 360 55 163 172 158 336 336 345 352 354 317 256 204 195 183
155 149 146 141 143 144 136 138 133 138 190 245 285 308 320 320 296 284 313 6 3 332 315 333 25 81 123 141 123 34 63 69 134 159 293 326 345 335 317 265 215 197 192
132 135 135 138 145 146 138 142 148 160 172 170 318 316 316 312 313 307 297 309 319 321 301 291 322 59 118 140 146 137 154 151 186 167 202 278 311 312 318 312 256 221 202
Height
1520 1521 1522 1522 1523 1523 1524 1524 1525 1525 1525 1526 1526 1526 1526 1526 1526 1527 1527 1527 1527 1527 1527 1527 1527 1527 1526 1526 1526 1526 1526 1525 1525 1525 1524 1524 1523 1522 1522 1521 1520 1519 1519
1520 1521 1523 1523 1523 1524 1525 1525 1525 1526 1526 1526 1526 1526 1526 1526 1526 1526 1527 1527 1527 1527 1527 1527 1527 1527 1526 1526 1526 1526 1526 1526 1525 1525 1525 1524 1523 1522 1522 1521 1520 1519 1518
1521 1522 1523 1524 1524 1525 1525 1526 1526 1526 1526 1526 1527 1527 1527 1527 1526 1526 1527 1527 1527 1527 1527 1527 1527 1527 1526 1526 1526 1526 1526 1526 1525 1525 1525 1524 1523 1523 1522 1521 1520 1519 1518
1522 1523 1524 1525 1525 1526 1526 1526 1526 1526 1527 1527 1527 1527 1527 1527 1526 1526 1526 1526 1526 1527 1527 1527 1526 1526 1526 1526 1526 1526 1526 1526 1525 1525 1524 1524 1523 1522 1522 1521 1520 1519 1519
1523 1524 1525 1526 1526 1527 1527 1527 1527 1527 1527 1527 1527 1527 1527 1527 1527 1526 1526 1526 1526 1526 1526 1527 1526 1526 1526 1526 1526 1525 1525 1525 1525 1525 1524 1524 1523 1522 1522 1521 1520 1519 1519
1524 1526 1527 1527 1527 1528 1528 1528 1528 1528 1528 1528 1528 1527 1527 1527 1527 1527 1526 1526 1526 1526 1526 1526 1526 1526 1526 1525 1525 1525 1525 1525 1525 1525 1524 1524 1523 1522 1522 1521 1520 1520 1520
1525 1527 1527 1528 1528 1528 1528 1528 1528 1528 1528 1528 1528 1528 1528 1528 1527 1527 1526 1526 1526 1526 1525 1525 1525 1525 1525 1525 1525 1525 1525 1525 1525 1525 1524 1524 1523 1523 1522 1521 1521 1521 1521
1526 1527 1528 1529 1529 1529 1529 1529 1529 1529 1529 1529 1529 1529 1528 1528 1528 1527 1527 1526 1526 1525 1525 1524 1524 1524 1524 1524 1524 1524 1524 1524 1525 1524 1524 1524 1523 1523 1522 1522 1522 1521 1521
1527 1528 1529 1530 1530 1530 1530 1530 1530 1530 1530 1530 1530 1529 1529 1528 1528 1527 1527 1526 1526 1525 1524 1524 1524 1523 1523 1523 1524 1524 1524 1524 1524 1524 1524 1524 1523 1523 1523 1522 1522 1522 1522
1529 1529 1530 1530 1531 1531 1531 1531 1531 1531 1531 1531 1530 1530 1529 1529 1528 1528 1527 1526 1525 1525 1524 1524 1523 1523 1523 1523 1523 1523 1523 1523 1524 1524 1524 1524 1524 1523 1523 1523 1522 1522 1522
1529 1530 1531 1531 1532 1532 1532 1532 1532 1532 1532 1531 1531 1530 1530 1529 1528 1528 1527 1526 1526 1525 1524 1524 1523 1523 1522 1522 1522 1522 1522 1523 1523 1523 1524 1524 1524 1523 1523 1523 1523 1523 1522
1530 1531 1532 1532 1532 1533 1533 1533 1533 1533 1532 1532 1531 1531 1530 1529 1528 1528 1527 1526 1526 1525 1524 1523 1523 1522 1522 1522 1522 1522 1522 1522 1522 1523 1523 1523 1523 1523 1523 1523 1523 1523 1523
1531 1531 1532 1532 1533 1533 1533 1533 1533 1533 1533 1532 1532 1531 1530 1529 1528 1528 1527 1526 1525 1525 1524 1523 1522 1522 1522 1521 1521 1521 1521 1521 1522 1522 1522 1523 1523 1523 1523 1523 1523 1523 1523
1531 1532 1532 1533 1533 1534 1534 1534 1534 1533 1533 1532 1531 1531 1530 1529 1528 1527 1527 1526 1525 1524 1523 1523 1522 1522 1521 1521 1521 1521 1521 1521 1521 1521 1522 1522 1522 1522 1523 1523 1523 1523 1523
1532 1532 1533 1534 1534 1534 1534 1534 1534 1534 1533 1532 1532 1531 1530 1529 1528 1527 1526 1526 1525 1524 1523 1522 1522 1521 1521 1520 1520 1520 1520 1520 1520 1521 1521 1521 1522 1522 1522 1522 1523 1523 1523
1532 1533 1534 1534 1535 1534 1534 1534 1534 1534 1533 1532 1532 1531 1530 1529 1528 1527 1526 1525 1524 1523 1523 1522 1521 1520 1520 1520 1520 1519 1519 1519 1519 1520 1520 1521 1521 1521 1522 1522 1523 1523 1523
1532 1533 1534 1534 1535 1535 1535 1534 1534 1534 1533 1533 1532 1531 1530 1529 1528 1527 1526 1525 1524 1523 1522 1521 1521 1520 1519 1519 1519 1519 1519 1519 1519 1519 1520 1520 1520 1521 1521 1522 1522 1523 1523
1532 1533 1533 1534 1535 1535 1535 1535 1535 1534 1533 1533 1532 1531 1530 1529 1527 1526 1525 1524 1523 1522 1521 1520 1520 1519 1519 1518 1518 1518 1518 1518 1518 1518 1519 1519 1520 1520 1521 1521 1522 1523 1523
1532 1533 1533 1534 1534 1535 1535 1535 1535 1534 1533 1533 1532 1531 1530 1529 1527 1526 1525 1524 1523 1522 1521 1520 1519 1519 1518 1518 1518 1518 1518 1518 1518 1518 1518 1519 1519 1520 1520 1521 1522 1523 1523
1532 1533 1533 1534 1534 1534 1535 1535 1535 1534 1534 1533 1532 1531 1530 1529 1527 1526 1525 1523 1522 1521 1520 1520 1519 1518 1518 1518 1517 1517 1517 1517 1517 1517 1518 1518 1519 1519 1520 1521 1521 1522 1523
1532 1533 1533 1534 1534 1534 1535 1535 1535 1534 1534 1533 1532 1531 1530 1529 1528 1526 1525 1523 1522 1521 1520 1520 1519 1518 1518 1517 1517 1517 1517 1517 1517 1517 1517 1518 1518 1519 1519 1520 1521 1522 1522
1531 1532 1533 1534 1534 1535 1535 1535 1535 1534 1534 1533 1532 1532 1530 1529 1528 1526 1525 1523 1522 1521 1520 1520 1519 1518 1518 1517 1517 1517 1517 1518 1517 1517 1517 1517 1518 1518 1519 1519 1520 1521 1522
1531 1532 1533 1534 1535 1535 1535 1535 1535 1534 1534 1533 1533 1532 1531 1529 1528 1527 1525 1524 1522 1522 1521 1520 1519 1518 1518 1518 1518 1518 1518 1517 1517 1517 1517 1517 1517 1518 1518 1519 1520 1520 1521
1530 1532 1533 1534 1535 1535 1535 1535 1535 1534 1534 1533 1533 1532 1531 1529 1528 1527 1525 1524 1523 1522 1521 1520 1519 1519 1518 1518 1518 1518 1518 1518 1518 1517 1517 1517 1517 1517 1518 1518 1519 1519 1520
1530 1531 1533 1534 1534 1535 1535 1535 1535 1534 1534 1533 1533 1532 1531 1530 1528 1527 1526 1524 1523 1522 1521 1520 1519 1519 1518 1518 1518 1517 1517 1517 1517 1517 1517 1517 1517 1517 1517 1517 1518 1519 1519
1530 1531 1532 1533 1534 1534 1535 1535 1534 1534 1534 1533 1533 1532 1531 1530 1528 1527 1526 1525 1524 1522 1521 1520 1520 1519 1518 1518 1518 1517 1517 1517 1517 1517 1516 1516 1516 1517 1517 1517 1517 1518 1518